"2009-12-21 00:00:00",1520925,5.75,304.1,6.708,1.043,8.61,103.287,7.691,8.77,30.31,0,110,13.4,8.47,266.1
"2009-12-21 00:00:30",1520926,6.607,314.9,5.267,1.149,11.63,103.2901,7.699,8.94,30.63,0,110,13.4,8.48,276.9
"2009-12-21 00:01:00",1520927,6.358,321.6,7.504,1.272,10.7,103.3,7.724,8.93,30.72,0,110,13.4,8.50,283.6
"2009-12-21 00:01:30",1520928,5.618,303.4,5.13,0.502,8.5,103.3099,7.75,8.8,30.56,0,110,13.44,8.53,265.4
"2009-12-21 00:02:00",1520929,6.903,309.9,7.014,1.684,11.26,103.3178,7.77,8.88,30.32,0,110,13.41,8.55,271.9
"2009-12-21 00:02:30",1520930,6.751,294.9,8.78,1.345,11.6,103.3224,7.781,8.97,30.43,0,110,13.41,8.56,256.9
"2009-12-21 00:03:00",1520931,5.885,295.7,7.403,1.252,10.03,103.323,7.783,8.77,30.06,0,110,13.41,8.56,257.7
"2009-12-21 00:03:30",1520932,6.828,305.5,7.756,1.338,12.39,103.3264,7.792,9.01,30.16,0,110,13.41,8.57,267.5
"2009-12-21 00:04:00",1520933,5.775,301.7,9.28,1.125,11.77,103.3279,7.796,8.96,30.11,0,110,13.41,8.57,263.7
"2009-12-21 00:04:30",1520934,4.628,300.6,7.557,0.962,9.34,103.332,7.806,8.88,30.02,0,110,13.41,8.59,262.6
"2009-12-21 00:05:00",1520935,4.954,298.8,9.06,1.063,9.45,103.3346,7.813,8.82,29.9,0,110,13.41,8.59,260.8
"2009-12-21 00:05:30",1520936,6.169,308.5,4.759,1.217,11.44,103.3375,7.82,8.96,30.14,0,110,13.41,8.60,270.5
"2009-12-21 00:06:00",1520937,4.837,299.3,2.66,0.904,8.93,103.3375,7.82,8.94,30.26,0,109.9,13.41,8.60,261.3
"2009-12-21 00:06:30",1520938,6.406,298.4,8.32,1.357,10.91,103.3433,7.835,8.95,30.21,0,110,13.41,8.61,260.4
"2009-12-21 00:07:00",1520939,7.527,304.3,8.06,1.198,12.14,103.3493,7.85,9.01,29.98,0,110,13.41,8.63,266.3
"2009-12-21 00:07:30",1520940,6.117,304.4,6.136,1.344,10.86,103.3644,7.889,9.09,30.1,0,110,13.41,8.67,266.4
"2009-12-21 00:08:00",1520941,5.837,314.1,6.891,1.132,10.81,103.3749,7.916,9.05,30.34,0,110,13.41,8.70,276.1
"2009-12-21 00:08:30",1520942,4.274,301,4.753,0.732,8.12,103.3787,7.925,8.96,30.4,0,110,13.41,8.71,263.0
"2009-12-21 00:09:00",1520943,6.128,304.4,9.84,1.015,10.81,103.3781,7.924,9.02,30.41,0,110,13.41,8.70,266.4
"2009-12-21 00:09:30",1520944,5.2,294.7,6.646,0.858,8.81,103.379,7.926,8.97,30.22,0,110,13.41,8.71,256.7
"2009-12-21 00:10:00",1520945,6.782,302.3,4.504,1.149,10.97,103.3754,7.917,8.93,30,0,110,13.41,8.70,264.3
"2009-12-21 00:10:30",1520946,7.054,302.4,7.604,1.214,12.19,103.3692,7.901,9.08,30.05,0,110,13.41,8.68,264.4
"2009-12-21 00:11:00",1520947,7.197,303.7,6.687,1.283,11.59,103.3613,7.881,9.02,29.92,0,110,13.41,8.66,265.7
"2009-12-21 00:11:30",1520948,6.466,301.8,4.026,0.709,9.08,103.357,7.87,9,29.76,0,109.9,13.41,8.65,263.8
"2009-12-21 00:12:00",1520949,7.066,301.9,8.23,1.524,10.58,103.3565,7.869,8.97,29.73,0,110,13.41,8.65,263.9
"2009-12-21 00:12:30",1520950,6.34,299.1,7.163,1.359,9.97,103.3559,7.867,9,29.84,0,110,13.41,8.65,261.1
"2009-12-21 00:13:00",1520951,6.922,302.4,6.968,1.191,10.11,103.3559,7.867,9,29.79,0,110,13.41,8.65,264.4
"2009-12-21 00:13:30",1520952,7.565,306.5,6.635,1.299,11.13,103.3559,7.867,9.08,29.78,0,110,13.41,8.65,268.5
"2009-12-21 00:14:00",1520953,7.68,313.4,5.837,0.962,12.54,103.3559,7.867,9.09,29.81,0,110,13.41,8.65,275.4
"2009-12-21 00:14:30",1520954,6.809,313.4,4.392,1.605,11.25,103.3559,7.867,9.02,29.98,0,110,13.41,8.65,275.4
"2009-12-21 00:15:30",1520955,7.846,302.2,5.383,0.935,9.15,103.3559,7.867,8.93,29.57,0,110,13.41,8.65,264.2
"2009-12-21 00:16:00",1520956,7.87,305.1,8.24,1.367,10.55,103.3559,7.867,9,29.63,0,110,13.41,8.65,267.1
"2009-12-21 00:16:30",1520957,7.909,307.8,5.645,1.231,11.8,103.3559,7.867,9.05,29.79,0,110,13.42,8.65,269.8
"2009-12-21 00:17:00",1520958,6.495,310.5,5.628,1.621,11.87,103.3559,7.867,9.09,30,0,110,13.42,8.65,272.5
"2009-12-21 00:17:30",1520959,5.441,312.2,7.985,1.21,9.62,103.3559,7.867,8.98,30.13,0,110,13.42,8.65,274.2
"2009-12-21 00:18:00",1520960,5.372,310.8,6.274,1.084,9.84,103.3556,7.867,9.07,30.29,0,110,13.42,8.65,272.8
"2009-12-21 00:18:30",1520961,6.197,308.3,6.718,0.702,8.84,103.3491,7.85,8.87,30.05,0,110,13.42,8.63,270.3
"2009-12-21 00:19:00",1520962,7.008,308.5,6.946,1.203,10.12,103.3308,7.803,8.92,29.84,0,110,13.42,8.58,270.5
"2009-12-21 00:19:30",1520963,6.551,310.3,7.352,1.335,10.55,103.3226,7.782,9.01,29.98,0,110,13.42,8.56,272.3
"2009-12-21 00:20:00",1520964,7.523,313.3,6.449,1.099,12.02,103.322,7.781,9.01,30.01,0,110,13.42,8.56,275.3
"2009-12-21 00:20:30",1520965,7.755,309.9,6.446,1.253,11.98,103.322,7.781,9.08,30.02,0,109.9,13.42,8.56,271.9
"2009-12-21 00:21:00",1520966,6.624,308.7,7.37,1.229,9.29,103.322,7.781,9,30.03,0,110,13.42,8.56,270.7
"2009-12-21 00:21:30",1520967,6.506,314.7,5.907,1.276,9.92,103.322,7.781,8.89,30.03,0,110,13.42,8.56,276.7
"2009-12-21 00:22:00",1520968,5.053,315.1,5.349,1.134,8.81,103.3206,7.777,8.91,30.23,0,110,13.42,8.56,277.1
"2009-12-21 00:22:30",1520969,4.702,314.6,5.793,0.861,8.27,103.3099,7.75,8.91,30.35,0,110,13.42,8.53,276.6
"2009-12-21 00:23:00",1520970,6.304,323.1,5.753,1.111,10.64,103.2946,7.711,8.91,30.43,0,110,13.43,8.49,285.1
"2009-12-21 00:23:30",1520971,6.531,314.5,7.502,1.181,11.72,103.2881,7.694,8.93,30.41,0,110,13.43,8.47,276.5
"2009-12-21 00:24:00",1520972,6.102,313.2,7.05,1.196,11.24,103.2881,7.694,8.99,30.31,0,110,13.43,8.47,275.2
"2009-12-21 00:24:30",1520973,6.764,317.4,4.52,1.295,11.27,103.2881,7.694,8.94,30.22,0,110,13.43,8.47,279.4
"2009-12-21 00:25:00",1520974,5.356,305.8,4.125,0.881,8.29,103.2805,7.674,8.83,30.24,0,109.9,13.43,8.45,267.8
"2009-12-21 00:25:30",1520975,5.414,304.7,6.174,0.821,8.64,103.2624,7.628,8.81,30.23,0,110,13.43,8.41,266.7
"2009-12-21 00:26:00",1520976,7.661,310.6,4.941,1.185,10.81,103.2545,7.608,8.75,29.97,0,109.9,13.42,8.39,272.6
"2009-12-21 00:26:30",1520977,7.957,311.1,5.504,1.047,12.26,103.2548,7.609,8.95,30.13,0,109.9,13.42,8.39,273.1
"2009-12-21 00:27:00",1520978,7.94,312.4,5.408,1.092,11.74,103.2557,7.611,8.86,30.01,0,109.9,13.42,8.39,274.4
"2009-12-21 00:27:30",1520979,7.238,311.4,6.369,1.349,10.87,103.2526,7.603,8.92,30.24,0,109.9,13.42,8.38,273.4
"2009-12-21 00:28:00",1520980,6.726,306.9,7.41,0.99,9.27,103.2305,7.547,8.71,29.98,0,109.9,13.42,8.33,268.9
"2009-12-21 00:28:30",1520981,7.429,304.4,8.12,0.926,9.93,103.2226,7.527,8.82,29.88,0,109.9,13.42,8.30,266.4
"2009-12-21 00:29:00",1520982,6.708,305.1,7.571,0.916,9.27,103.2224,7.526,8.75,29.88,0,109.9,13.42,8.30,267.1
"2009-12-21 00:29:30",1520983,8.1,318.2,4.927,1.151,12.11,103.225,7.533,8.78,29.87,0,109.9,13.42,8.31,280.2
"2009-12-21 00:30:00",1520984,7.924,315.1,6.345,1.159,11.41,103.2262,7.536,8.82,29.68,0,109.9,13.42,8.31,277.1
"2009-12-21 00:30:30",1520985,8.09,317.1,5.773,1.207,12.49,103.2262,7.536,8.89,29.83,0,109.9,13.42,8.31,279.1
"2009-12-21 00:31:00",1520986,6.953,314.4,6.412,1.161,9.95,103.2276,7.539,8.71,29.78,0,109.9,13.42,8.32,276.4
"2009-12-21 00:31:30",1520987,5.328,306.6,2.03,0.345,7.875,103.2285,7.542,8.62,29.71,0,109.9,13.46,8.32,268.6
"2009-12-21 00:32:00",1520988,6.342,309.5,6.169,1.337,10,103.2291,7.543,8.67,29.95,0,109.9,13.43,8.32,271.5
"2009-12-21 00:32:30",1520989,6.229,307.8,5.787,1.25,10.46,103.2288,7.542,8.77,30.18,0,109.9,13.43,8.32,269.8
"2009-12-21 00:33:00",1520990,7.067,308.7,5.889,1.035,11.68,103.23,7.545,8.76,30.34,0,109.9,13.43,8.32,270.7
"2009-12-21 00:33:30",1520991,7.433,308.8,5.011,1.034,12.18,103.2297,7.545,8.89,30.44,0,109.9,13.43,8.32,270.8
"2009-12-21 00:34:00",1520992,7.168,308.3,6.62,1.146,10.36,103.2286,7.542,8.65,30.08,0,109.9,13.43,8.32,270.3
"2009-12-21 00:34:30",1520993,6.726,305.7,6.412,1.168,9.47,103.2184,7.516,8.65,29.99,0,109.9,13.43,8.29,267.7
"2009-12-21 00:35:00",1520994,6.531,304,4.596,0.838,8.86,103.2121,7.5,8.66,29.94,0,109.9,13.43,8.28,266.0
"2009-12-21 00:35:30",1520995,7.427,308.4,6.103,1.239,9.98,103.2024,7.475,8.63,29.82,0,109.9,13.43,8.25,270.4
"2009-12-21 00:36:00",1520996,8.02,316,6.995,1.264,11.54,103.2033,7.477,8.78,29.8,0,109.9,13.43,8.26,278.0
"2009-12-21 00:36:30",1520997,8.21,318.7,6.21,1.17,11.98,103.2013,7.472,8.81,29.66,0,109.9,13.43,8.25,280.7
"2009-12-21 00:37:00",1520998,8.14,317.2,7.025,1.302,11.05,103.2063,7.485,8.71,29.5,0,109.9,13.43,8.26,279.2
"2009-12-21 00:37:30",1520999,6.787,310.8,5.43,0.936,9.2,103.206,7.484,8.72,29.58,0,109.9,13.43,8.26,272.8
"2009-12-21 00:38:00",1521000,7.345,312.4,6.943,1.261,10.06,103.2101,7.494,8.61,29.48,0,109.9,13.43,8.27,274.4
"2009-12-21 00:38:30",1521001,7.341,312,6.431,1.278,10.62,103.2092,7.492,8.76,29.57,0,109.9,13.43,8.27,274.0
"2009-12-21 00:39:00",1521002,7.615,310,6.581,1.253,10.48,103.2124,7.5,8.61,29.34,0,109.9,13.43,8.28,272.0
"2009-12-21 00:39:30",1521003,9.73,317.3,5.554,0.377,13.26,103.2115,7.498,8.77,29.2,0,109.9,13.43,8.28,279.3
"2009-12-21 00:40:00",1521004,8.85,317.4,6.155,1.103,11.92,103.2121,7.5,8.77,29.07,0,109.9,13.43,8.28,279.4
"2009-12-21 00:40:30",1521005,8.78,317.1,6.038,1.283,11.65,103.2133,7.503,8.64,28.93,0,109.9,13.43,8.28,279.1
"2009-12-21 00:41:00",1521006,7.646,310.2,5.056,1.053,9.01,103.2136,7.503,8.62,28.93,0,109.9,13.43,8.28,272.2
"2009-12-21 00:41:30",1521007,8.18,315.8,6.468,1.285,10.96,103.2133,7.503,8.59,28.94,0,109.9,13.43,8.28,277.8
"2009-12-21 00:42:00",1521008,6.811,312.1,6.083,1.142,10.29,103.2138,7.504,8.72,29.16,0,109.9,13.43,8.28,274.1
"2009-12-21 00:42:30",1521009,7.76,318.1,5.178,1.023,12.28,103.2164,7.511,8.8,29.4,0,109.9,13.43,8.29,280.1
"2009-12-21 00:43:00",1521010,7.504,314.8,6.203,1.101,11.39,103.2165,7.511,8.73,29.59,0,109.9,13.43,8.29,276.8
"2009-12-21 00:43:30",1521011,5.883,307.3,5.506,0.954,8.81,103.2196,7.519,8.65,29.61,0,109.9,13.43,8.30,269.3
"2009-12-21 00:44:00",1521012,6.674,308.7,6.387,1.279,9.72,103.2184,7.516,8.67,29.69,0,109.9,13.43,8.29,270.7
"2009-12-21 00:44:30",1521013,7.109,307.8,6.652,1.395,9.89,103.2213,7.523,8.67,29.46,0,109.9,13.43,8.30,269.8
"2009-12-21 00:45:00",1521014,8.31,311.7,6.392,1.311,11.08,103.2252,7.533,8.63,29.01,0,109.9,13.43,8.31,273.7
"2009-12-21 00:45:30",1521015,8.3,311.6,6.641,1.243,11.78,103.2315,7.549,8.78,28.82,0,109.9,13.43,8.33,273.6
"2009-12-21 00:46:00",1521016,8.91,316.5,4.842,1.047,12.79,103.2397,7.57,8.77,28.69,0,109.9,13.43,8.35,278.5
"2009-12-21 00:46:30",1521017,8,313.1,7.288,1.423,11.18,103.2507,7.598,8.69,28.47,0,109.9,13.43,8.38,275.1
"2009-12-21 00:47:00",1521018,7.342,311.6,6.366,1.28,10.39,103.2515,7.6,8.67,28.45,0,109.9,13.43,8.38,273.6
"2009-12-21 00:47:30",1521019,7.433,309.2,7.284,1.15,10,103.2536,7.606,8.66,28.54,0,109.9,13.43,8.38,271.2
"2009-12-21 00:48:00",1521020,8.88,315.3,7.124,1.14,12.29,103.2548,7.609,8.64,28.74,0,109.9,13.43,8.39,277.3
"2009-12-21 00:48:30",1521021,8.13,308,5.665,1.111,11.22,103.2536,7.606,8.7,28.55,0,109.9,13.44,8.38,270.0
"2009-12-21 00:49:00",1521022,8.93,309.2,4.196,0.693,13.21,103.2548,7.609,8.82,28.47,0,110,13.44,8.39,271.2
"2009-12-21 00:49:30",1521023,8.51,310.2,7.674,1.336,12,103.2607,7.624,8.77,28.4,0,110,13.44,8.40,272.2
"2009-12-21 00:50:00",1521024,8.65,313.7,5.917,1.303,11.26,103.2821,7.679,8.7,28.28,0,110,13.44,8.46,275.7
"2009-12-21 00:50:30",1521025,8.16,311.5,6.377,1.045,10.41,103.289,7.696,8.74,28.32,0,110,13.44,8.48,273.5
"2009-12-21 00:51:00",1521026,8.26,312.9,4.596,0.877,9.71,103.2875,7.692,8.68,28.31,0,110,13.44,8.47,274.9
"2009-12-21 00:51:30",1521027,9.26,319.1,6.231,1.193,12.87,103.2969,7.716,8.87,28.35,0,110,13.44,8.50,281.1
"2009-12-21 00:52:00",1521028,9.9,320.9,4.727,0.354,14.18,103.32,7.776,8.97,28.37,0,110,13.44,8.55,282.9
"2009-12-21 00:52:30",1521029,8.7,318,6.272,1.266,12.32,103.322,7.78,8.9,28.23,0,110,13.44,8.56,280.0
"2009-12-21 00:53:00",1521030,8.25,313.1,6.206,1.203,10.46,103.322,7.78,8.74,28,0,110,13.44,8.56,275.1
"2009-12-21 00:53:30",1521031,8.32,313.8,6.356,1.218,10.71,103.3288,7.798,8.81,27.99,0,110,13.44,8.58,275.8
"2009-12-21 00:54:00",1521032,7.036,309.9,0.938,0.116,8.9,103.3511,7.855,8.76,27.88,0,110,13.47,8.63,271.9
"2009-12-21 00:54:30",1521033,8.4,317.5,6.274,1.262,11.73,103.3562,7.868,8.98,28.06,0,110,13.44,8.65,279.5
"2009-12-21 00:55:00",1521034,9.1,320.5,4.99,0.901,13.27,103.3562,7.868,9.02,28.1,0,110,13.44,8.65,282.5
"2009-12-21 00:55:30",1521035,7.829,317.4,6.519,1.271,11.76,103.3593,7.876,9,28.02,0,110,13.44,8.66,279.4
"2009-12-21 00:56:00",1521036,8.36,319.3,6.249,1.093,12.33,103.3805,7.93,8.93,27.84,0,110,13.44,8.71,281.3
"2009-12-21 00:56:30",1521037,6.862,312.1,5.387,0.855,9.69,103.3904,7.955,8.94,27.76,0,110,13.44,8.74,274.1
"2009-12-21 00:57:00",1521038,7.086,314.3,6.047,1.158,9.95,103.3892,7.952,8.83,27.61,0,110,13.44,8.73,276.3
"2009-12-21 00:57:30",1521039,8.15,318.5,5.979,1.118,12.43,103.3904,7.955,9.08,27.81,0,110,13.44,8.74,280.5
"2009-12-21 00:58:00",1521040,7.89,318.4,5.795,1.105,12.55,103.4011,7.983,9.13,27.79,0,110,13.44,8.76,280.4
"2009-12-21 00:58:30",1521041,6.864,312.1,6.252,1.387,10.97,103.4238,8.04,9.09,27.72,0,110,13.43,8.82,274.1
"2009-12-21 00:59:00",1521042,8.14,312.6,5.921,1.155,12.18,103.4249,8.04,9.07,27.77,0,110,13.43,8.82,274.6
"2009-12-21 00:59:30",1521043,7.299,308.8,6.54,1.334,11.03,103.424,8.04,9.06,27.77,0,110,13.43,8.82,270.8
"2009-12-21 01:00:00",1521044,6.101,304.4,3.498,0.507,9.19,103.4243,8.04,9.05,27.71,0,110,13.43,8.82,266.4
"2009-12-21 01:00:30",1521045,7.439,308.2,6.488,1.288,11.52,103.426,8.05,9.17,27.76,0,110,13.43,8.83,270.2
"2009-12-21 01:01:00",1521046,7.901,310.4,6.408,1.204,12.26,103.4387,8.08,9.21,27.77,0,110,13.43,8.86,272.4
"2009-12-21 01:01:30",1521047,7.361,306.3,6.79,1.191,11.73,103.4452,8.1,9.19,27.71,0,110,13.43,8.88,268.3
"2009-12-21 01:02:00",1521048,6.906,303.9,6.686,1.269,10.06,103.4531,8.12,9.06,27.54,0,110,13.43,8.90,265.9
"2009-12-21 01:02:30",1521049,7.039,302.7,7.317,1.313,10.88,103.4577,8.13,9.1,27.56,0,110,13.43,8.91,264.7
"2009-12-21 01:03:00",1521050,6.484,302.6,6.383,1.285,10.44,103.4588,8.13,9.16,27.58,0,110,13.43,8.91,264.6
"2009-12-21 01:03:30",1521051,6.39,302.6,5.779,1.207,10.2,103.4579,8.13,9.1,27.55,0,110,13.44,8.91,264.6
"2009-12-21 01:04:00",1521052,7.249,303.1,5.847,1.142,11.58,103.4585,8.13,9.23,27.69,0,110,13.44,8.91,265.1
"2009-12-21 01:04:30",1521053,7.666,304.3,5.638,1.002,12.62,103.4588,8.13,9.3,27.63,0,110,13.44,8.91,266.3
"2009-12-21 01:05:00",1521054,7.359,302.9,6.751,1.178,11.69,103.4582,8.13,9.21,27.53,0,110,13.44,8.91,264.9
"2009-12-21 01:05:30",1521055,7.161,301.7,7.619,1.45,11.23,103.4582,8.13,9.23,27.56,0,110,13.44,8.91,263.7
"2009-12-21 01:06:00",1521056,6.221,298.4,6.287,1.137,10.37,103.4588,8.13,9.21,27.51,0,110,13.44,8.91,260.4
"2009-12-21 01:06:30",1521057,6.214,297.6,3.748,0.634,8.72,103.4585,8.13,9.07,27.46,0,110,13.44,8.91,259.6
"2009-12-21 01:07:00",1521058,6.984,300.5,7.265,1.421,11.47,103.4582,8.13,9.22,27.68,0,110,13.44,8.91,262.5
"2009-12-21 01:07:30",1521059,7.635,303.7,5.723,1.166,11.8,103.4582,8.13,9.33,27.83,0,110,13.44,8.91,265.7
"2009-12-21 01:08:00",1521060,7.549,305.4,7.543,1.294,12.04,103.4585,8.13,9.28,27.78,0,110,13.44,8.91,267.4
"2009-12-21 01:08:30",1521061,7.001,301.1,6.517,1.171,11.55,103.4588,8.13,9.32,27.82,0,110,13.44,8.91,263.1
"2009-12-21 01:09:00",1521062,5.732,297.4,5.584,1.076,9.54,103.4585,8.13,9.18,27.74,0,110,13.44,8.91,259.4
"2009-12-21 01:09:30",1521063,6.22,300,6.687,1.267,10.25,103.4591,8.13,9.17,27.77,0,110,13.44,8.91,262.0
"2009-12-21 01:10:00",1521064,5.49,296.7,2.979,0.324,8.32,103.4582,8.13,9.13,27.78,0,110,13.48,8.91,258.7
"2009-12-21 01:10:30",1521065,8.29,305.2,5.994,1.297,12,103.4599,8.13,9.35,28.01,0,110,13.44,8.91,267.2
"2009-12-21 01:11:00",1521066,8.73,305.3,5.487,1.064,12.66,103.4594,8.13,9.37,28.02,0,110,13.44,8.91,267.3
"2009-12-21 01:11:30",1521067,8.58,309.3,6.486,1.198,12.7,103.4599,8.13,9.31,27.94,0,110,13.44,8.91,271.3
"2009-12-21 01:12:00",1521068,7.668,304.4,5.683,1.23,11.75,103.4616,8.14,9.31,27.93,0,110,13.44,8.92,266.4
"2009-12-21 01:12:30",1521069,5.93,297.9,3.279,0.369,8.39,103.461,8.14,9.17,27.81,0,110,13.44,8.92,259.9
"2009-12-21 01:13:00",1521070,6.087,299,7.197,1.134,9.84,103.4636,8.14,9.22,27.88,0,110,13.44,8.92,261.0
"2009-12-21 01:13:30",1521071,7.226,302,4.661,1.096,10.03,103.465,8.15,9.24,27.9,0,110,13.44,8.93,264.0
"2009-12-21 01:14:00",1521072,8.21,308,5.525,1.201,12.5,103.4656,8.15,9.38,28.03,0,110,13.44,8.93,270.0
"2009-12-21 01:14:30",1521073,7.573,306.6,6.4,1.284,11.59,103.4707,8.16,9.29,27.97,0,110,13.44,8.94,268.6
"2009-12-21 01:15:00",1521074,7.4,308.8,5.987,1.194,11.14,103.4718,8.16,9.37,28.06,0,110,13.44,8.94,270.8
"2009-12-21 01:15:30",1521075,6.116,302.7,3.294,1.355,10.29,103.4726,8.17,9.18,27.85,0,110,13.43,8.95,264.7
"2009-12-21 01:16:00",1521076,5.493,304.1,2.981,0.505,8.28,103.4738,8.17,9.13,27.79,0,110,13.44,8.95,266.1
"2009-12-21 01:16:30",1521077,5.603,306.3,5.838,1.135,10.41,103.474,8.17,9.28,27.93,0,110,13.43,8.95,268.3
"2009-12-21 01:17:00",1521078,6.131,299.2,6.234,1.353,10,103.4732,8.17,9.2,27.9,0,110,13.44,8.95,261.2
"2009-12-21 01:17:30",1521079,6.533,298.7,5.992,1.33,11.47,103.4741,8.17,9.36,28.08,0,110,13.44,8.95,260.7
"2009-12-21 01:18:00",1521080,6.639,304.8,6.684,1.157,11.93,103.4741,8.17,9.4,28.15,0,110,13.44,8.95,266.8
"2009-12-21 01:18:30",1521081,5.478,294.4,5.872,1.07,9.26,103.4735,8.17,9.22,27.99,0,110,13.44,8.95,256.4
"2009-12-21 01:19:00",1521082,6.12,301.1,6.607,1.188,10.14,103.4718,8.16,9.17,27.94,0,110,13.43,8.94,263.1
"2009-12-21 01:19:30",1521083,6.386,302.8,5.743,1.181,10.01,103.4701,8.16,9.16,27.91,0,110,13.44,8.94,264.8
"2009-12-21 01:20:00",1521084,6.261,301.1,7.202,1.311,10.61,103.4678,8.15,9.29,28.09,0,110,13.44,8.93,263.1
"2009-12-21 01:20:30",1521085,7.401,310.4,5.838,1.152,12.22,103.463,8.14,9.35,28.12,0,110,13.44,8.92,272.4
"2009-12-21 01:21:00",1521086,7.975,315,4.313,0.805,13.36,103.4616,8.14,9.41,28.08,0,110,13.44,8.92,277.0
"2009-12-21 01:21:30",1521087,6.643,303.4,8.02,1.178,10.43,103.4596,8.13,9.29,27.96,0,110,13.44,8.91,265.4
"2009-12-21 01:22:00",1521088,5.439,301.7,5.987,1.106,10.06,103.4588,8.13,9.27,27.95,0,110,13.44,8.91,263.7
"2009-12-21 01:22:30",1521089,5.109,297.4,5.491,1.112,8.53,103.4585,8.13,9.12,27.86,0,110,13.44,8.91,259.4
"2009-12-21 01:23:00",1521090,5.749,300.8,5.292,1.2,10.22,103.4588,8.13,9.24,28.02,0,110,13.44,8.91,262.8
"2009-12-21 01:23:30",1521091,5.546,302.9,7.808,1.232,9.47,103.4585,8.13,9.15,27.91,0,110,13.44,8.91,264.9
"2009-12-21 01:24:00",1521092,7.314,311.6,6.689,1.185,12,103.4588,8.13,9.3,28.08,0,110,13.45,8.91,273.6
"2009-12-21 01:24:30",1521093,7.386,310.2,6.066,0.974,12.75,103.4585,8.13,9.37,28.16,0,110,13.45,8.91,272.2
"2009-12-21 01:25:00",1521094,5.613,304.4,5.056,1.163,9.33,103.4585,8.13,9.19,28.04,0,110,13.45,8.91,266.4
"2009-12-21 01:25:30",1521095,5.852,304.5,8.16,1.363,9.69,103.4585,8.13,9.14,28.06,0,110,13.44,8.91,266.5
"2009-12-21 01:26:00",1521096,5.721,303.9,6.415,1.556,9.99,103.4577,8.13,9.23,28.21,0,110,13.44,8.91,265.9
"2009-12-21 01:26:30",1521097,5.078,306.5,6.248,0.629,8.92,103.4514,8.11,9.2,28.22,0,110,13.45,8.89,268.5
"2009-12-21 01:27:00",1521098,6.301,312.2,8.09,1.383,10.58,103.4432,8.09,9.22,28.21,0,110,13.45,8.87,274.2
"2009-12-21 01:27:30",1521099,7.087,317.5,6.645,1.216,11.56,103.4365,8.07,9.31,28.32,0,110,13.45,8.85,279.5
"2009-12-21 01:28:00",1521100,6.907,318.3,6.77,1.147,12.22,103.4257,8.05,9.33,28.4,0,110,13.45,8.83,280.3
"2009-12-21 01:28:30",1521101,4.485,310,4.009,1.108,8.33,103.4249,8.04,9.13,28.45,0,110,13.45,8.82,272.0
"2009-12-21 01:29:00",1521102,5.588,311.8,7.035,1.185,9.59,103.4246,8.04,9.12,28.55,0,110,13.45,8.82,273.8
"2009-12-21 01:29:30",1521103,5.37,314.3,8.89,1.102,9.76,103.4249,8.04,9.18,28.57,0,110,13.45,8.82,276.3
"2009-12-21 01:30:00",1521104,4.838,313.8,7.659,0.906,9.11,103.424,8.04,9.1,28.59,0,110,13.45,8.82,275.8
"2009-12-21 01:30:30",1521105,5.598,322.3,6.048,1.267,11.17,103.4074,7.999,9.24,28.89,0,110,13.45,8.78,284.3
"2009-12-21 01:31:00",1521106,6.166,318.9,6.689,1.073,10.75,103.3913,7.958,9.26,29.1,0,110,13.45,8.74,280.9
"2009-12-21 01:31:30",1521107,6.018,316.7,6.29,1.19,10.16,103.391,7.957,9.08,28.75,0,110,13.44,8.74,278.7
"2009-12-21 01:32:00",1521108,6.215,318.9,6.577,1.265,10.51,103.3873,7.947,9.19,28.73,0,110,13.44,8.73,280.9
"2009-12-21 01:32:30",1521109,5.451,315.3,5.505,0.967,8.86,103.3607,7.88,9.06,28.62,0,110,13.44,8.66,277.3
"2009-12-21 01:33:00",1521110,5.89,317.7,6.1,1.419,9.66,103.3571,7.87,9.03,28.59,0,110,13.44,8.65,279.7
"2009-12-21 01:33:30",1521111,6.681,322.1,5.674,1.203,11.64,103.3571,7.87,9.17,28.86,0,110,13.44,8.65,284.1
"2009-12-21 01:34:00",1521112,6.687,315.4,5.814,1.21,12.12,103.3528,7.859,9.13,28.82,0,110,13.44,8.64,277.4
"2009-12-21 01:34:30",1521113,5.937,311.7,6.091,1.208,10.6,103.3333,7.809,8.97,28.56,0,110,13.44,8.59,273.7
"2009-12-21 01:35:00",1521114,5.985,313.2,6.131,1.16,10.31,103.3232,7.783,9.06,28.71,0,110,13.44,8.56,275.2
"2009-12-21 01:35:30",1521115,6.006,314.8,9.09,1.35,9.66,103.3232,7.783,8.89,28.67,0,110,13.44,8.56,276.8
"2009-12-21 01:36:00",1521116,5.842,308.6,6.819,1.27,10.49,103.3232,7.783,8.96,28.74,0,110,13.44,8.56,270.6
"2009-12-21 01:36:30",1521117,5.159,306.7,5.399,0.905,9.39,103.3161,7.765,8.9,28.73,0,110,13.45,8.54,268.7
"2009-12-21 01:37:00",1521118,6.764,321.3,5.994,1.158,11.51,103.3056,7.739,9.05,28.92,0,110,13.45,8.52,283.3
"2009-12-21 01:37:30",1521119,7.147,327.1,5.049,0.861,12.19,103.2912,7.702,9.02,29.03,0,110,13.45,8.48,289.1
"2009-12-21 01:38:00",1521120,5.912,322.6,6.236,1.212,10.32,103.2893,7.697,8.91,29.05,0,110,13.45,8.48,284.6
"2009-12-21 01:38:30",1521121,5.273,322.9,6.304,1.322,9.09,103.2893,7.697,8.83,29.12,0,110,13.45,8.48,284.9
"2009-12-21 01:39:00",1521122,5.024,324.9,6.425,1.254,8.94,103.2893,7.697,8.89,29.31,0,110,13.45,8.48,286.9
"2009-12-21 01:39:30",1521123,4.773,322,7.038,1.03,8.73,103.2887,7.695,8.79,29.28,0,110,13.45,8.47,284.0
"2009-12-21 01:40:00",1521124,5.532,332.1,7.399,1.196,11.07,103.2703,7.648,8.94,29.52,0,110,13.45,8.43,294.1
"2009-12-21 01:40:30",1521125,5.719,330.7,6.51,1.07,11.47,103.2573,7.615,8.91,29.52,0,110,13.45,8.39,292.7
"2009-12-21 01:41:00",1521126,4.642,329.1,6.445,1.194,9.22,103.2553,7.61,8.88,29.55,0,110,13.45,8.39,291.1
"2009-12-21 01:41:30",1521127,5.304,335.2,6.784,1.262,9.68,103.2553,7.61,8.83,29.55,0,110,13.45,8.39,297.2
"2009-12-21 01:42:00",1521128,4.788,337.2,5.153,1.319,8.78,103.2553,7.61,8.69,29.48,0,110,13.45,8.39,299.2
"2009-12-21 01:42:30",1521129,3.747,341.4,2.942,0.086,6.994,103.2497,7.596,8.73,29.62,0,110,13.49,8.37,303.4
"2009-12-21 01:43:00",1521130,4.482,346.6,5.306,1.161,8.41,103.2254,7.534,8.73,29.8,0,110,13.45,8.31,308.6
"2009-12-21 01:43:30",1521131,5.154,345,6.763,1.369,10.11,103.2214,7.523,8.87,30.03,0,110,13.45,8.30,307.0
"2009-12-21 01:44:00",1521132,5.532,348.2,9.02,1.051,11.06,103.2214,7.523,8.86,30.09,0,110,13.45,8.30,310.2
"2009-12-21 01:44:30",1521133,5.236,341.2,8.29,1.28,9.46,103.2127,7.501,8.76,30.05,0,109.9,13.45,8.28,303.2
"2009-12-21 01:45:00",1521134,4.733,339.7,6.057,1.329,8.55,103.192,7.448,8.74,30.11,0,110,13.45,8.23,301.7
"2009-12-21 01:45:30",1521135,4.917,337.8,6.589,1.213,8.3,103.1875,7.437,8.52,29.91,0,110,13.45,8.21,299.8
"2009-12-21 01:46:00",1521136,3.912,338.3,4.659,0.272,6.715,103.1819,7.422,8.49,29.91,0,110,13.49,8.20,300.3
"2009-12-21 01:46:30",1521137,5.263,341.2,5.117,1.243,9.64,103.1547,7.353,8.65,30.14,0,109.9,13.45,8.13,303.2
"2009-12-21 01:47:00",1521138,5.59,340.3,6.072,1.268,10.71,103.1536,7.35,8.69,30.28,0,109.9,13.46,8.13,302.3
"2009-12-21 01:47:30",1521139,5.087,337.7,8.43,1.216,10.4,103.1434,7.324,8.6,30.32,0,109.9,13.45,8.10,299.7
"2009-12-21 01:48:00",1521140,4.439,346.8,10.23,1.139,9.37,103.122,7.269,8.63,30.41,0,109.9,13.45,8.05,308.8
"2009-12-21 01:48:30",1521141,4.482,335.2,4.445,1.118,8.23,103.1197,7.263,8.43,30.31,0,109.9,13.45,8.04,297.2
"2009-12-21 01:49:00",1521142,3.635,330.9,2.746,0.138,6.502,103.0965,7.204,8.36,30.34,0,109.9,13.48,7.98,292.9
"2009-12-21 01:49:30",1521143,4.402,336.8,4.107,1.189,7.683,103.0858,7.177,8.31,30.35,0,109.9,13.45,7.95,298.8
"2009-12-21 01:50:00",1521144,4.879,340.9,5.748,1.429,9.51,103.0844,7.173,8.47,30.59,0,109.9,13.45,7.95,302.9
"2009-12-21 01:50:30",1521145,6.374,342.9,5.648,0.913,11.54,103.0626,7.118,8.56,30.72,0,109.9,13.45,7.89,304.9
"2009-12-21 01:51:00",1521146,6.225,341.1,5.69,1.048,11.09,103.0519,7.09,8.52,30.79,0,110,13.45,7.87,303.1
"2009-12-21 01:51:30",1521147,5.8,340.4,6.951,1.295,9.77,103.051,7.088,8.41,30.77,0,109.9,13.45,7.86,302.4